Find GPS IIA-8

NORAD ID: 22275 Int'l Des: 1992-089 Owner: AFSMC Country: US Constellation: GPS operational
MEOCIRCULAR

当前视图

正在加载3D地球...

About GPS IIA-8

GPS IIA-8 (NORAD 22275) is a GPS constellation satellite launched Dec 18, 1992 by AFSMC of US. It operates in MEO, CIRCULAR orbit with a mass of 860.00 kg.

关于 GPS IIA-8

正在加载描述...

即将过境

Passes for default location (London). Set your location on the main map for personalized predictions.

高度历史

Loading altitude history...

两行轨道根数

1 22275U 92089A 26192.43877655 -.00000005 00000-0 00000-0 0 9997
2 22275 55.0340 127.5898 0075258 79.9419 90.3547 1.88246570237330
Epoch: Jul 11, 2026 • Age: 76 hours

当前状态

高度 21259.9 km
远地点 / 近地点 N/A
速度 3.80 km/s
星下点 23.45°N, 142.77°E
发射日期 Dec 18, 1992
运行时间 33.5 years
类型 navigation

技术详情

分类 Payload
质量 860.00 kg
干质量 860.00 kg
总质量 1881.00 kg
长度 2.40 m
直径 1.80 m
跨度 5.30 m
形状 Box + 2 Pan
制造商 RWISB
平台类型 GPS
阶段状态 In Orbit
所有者/国家 AFSMC/US

Most Searched